This is the latest recevied weather packets stored in our database for station/object W6ORV. If no packets are shown the sender has not sent any weather packets the latest 1 day(s).
| Time | Temp. | Humidity | Pressure | Rain* | Wind** | Luminosity | Snow |
|---|---|---|---|---|---|---|---|
| 1777990736 | 7.78° C | 95% | 4299.7 hPa | 0 mm | 0 m/s | 58 W/m² | - |
| 1777990433 | 7.22° C | 95% | 4299.7 hPa | 0 mm | 0 m/s | 48 W/m² | - |
| 1777990129 | 7.22° C | 95% | 4299.7 hPa | 0 mm | 0 m/s | 35 W/m² | - |
| 1777989826 | 7.78° C | 95% | 4299.6 hPa | 0 mm | 0 m/s | 30 W/m² | - |
| 1777989523 | 7.78° C | 94% | 4299.7 hPa | 0 mm | 0 m/s | 27 W/m² | - |
| 1777989219 | 7.78° C | 94% | 4299.6 hPa | 0 mm | 0 m/s | 25 W/m² | - |
| 1777988915 | 8.33° C | 94% | 4299.4 hPa | 0 mm | 0 m/s | 23 W/m² | - |
| 1777988612 | 8.33° C | 95% | 4299.7 hPa | 0 mm | 0 m/s | 23 W/m² | - |
| 1777988309 | 8.33° C | 95% | 4299.6 hPa | 0 mm | 0 m/s | 25 W/m² | - |
| 1777988006 | 8.33° C | 95% | 4299.5 hPa | 0 mm | 0 m/s | 21 W/m² | - |
| 1777987701 | 7.78° C | 95% | 4299.5 hPa | 0 mm | 0 m/s | 16 W/m² | - |
| 1777987399 | 7.78° C | 95% | 4299.2 hPa | 0 mm | 0 m/s | 10 W/m² | - |
| 1777987096 | 7.78° C | 95% | 4299.4 hPa | 0 mm | 0 m/s | 6 W/m² | - |
| 1777986794 | 7.78° C | 95% | 4299.5 hPa | 0 mm | 0 m/s | 3 W/m² | - |
| 1777986491 | 7.78° C | 95% | 4299.5 hPa | 0 mm | 0 m/s | 0 W/m² | - |
| 1777986189 | 7.78° C | 94% | 4299.3 hPa | 0 mm | 0 m/s | 0 W/m² | - |
| 1777985886 | 7.78° C | 94% | 4299.4 hPa | 0 mm | 0 m/s | 0 W/m² | - |
| 1777985583 | 7.78° C | 94% | 4299.5 hPa | 0 mm | 0 m/s | 0 W/m² | - |
| 1777985279 | 7.22° C | 94% | 4299.5 hPa | 0 mm | 0 m/s | 0 W/m² | - |
| 1777984976 | 7.78° C | 94% | 4299.4 hPa | 0 mm | 0 m/s | 0 W/m² | - |
| 1777984672 | 7.78° C | 94% | 4299.3 hPa | 0 mm | 0 m/s | 0 W/m² | - |
| 1777984369 | 7.78° C | 94% | 4299.4 hPa | 0 mm | 0 m/s | 0 W/m² | - |
| 1777984065 | 7.78° C | 94% | 4299.5 hPa | 0 mm | 0 m/s | 0 W/m² | - |
| 1777983763 | 7.78° C | 94% | 4299.5 hPa | 0 mm | 0 m/s | 0 W/m² | - |
| 1777983459 | 7.22° C | 94% | 4299.4 hPa | 0 mm | 0 m/s | 0 W/m² | - |
* Rain latest hour (hover to see other rain measurements)
** Current wind speed in m/s (hover to see current wind gust speed)